![]() |
EMODnet Physics ERDDAP
Easier access to scientific data |
log in|
Brought to you by EMODnet Physics |
| Dataset Title: | NDBC - Collection of dew point temperature (DEWT) TimeSeries - IN SITU MultiPointTimeSeriesObservation
|
| Institution: | NDBC (Dataset ID: TS_DEWT_NDBC) |
| Information: | Summary
| License
| FGDC
| ISO 19115
| Metadata
| Background
| Subset
| Data Access Form
| Make a graph
|
| Name | Last modified | Size | Description | |
|---|---|---|---|---|
| Parent Directory | - | - | ||
| WSLM4_TS_DEWT_012016.nc | 29-Dec-2024 11:06 | 450796 | ||
| WSLM4_TS_DEWT_012017.nc | 29-Dec-2024 11:08 | 3740633 | ||
| WSLM4_TS_DEWT_012018.nc | 29-Dec-2024 11:10 | 451443 | ||
| WSLM4_TS_DEWT_012020.nc | 29-Dec-2024 11:13 | 4473269 | ||
| WSLM4_TS_DEWT_012021.nc | 29-Dec-2024 11:13 | 448998 | ||
| WSLM4_TS_DEWT_012022.nc | 29-Dec-2024 11:15 | 3706476 | ||
| WSLM4_TS_DEWT_012023.nc | 29-Dec-2024 11:17 | 451020 | ||
| WSLM4_TS_DEWT_022016.nc | 29-Dec-2024 11:07 | 4274383 | ||
| WSLM4_TS_DEWT_022017.nc | 29-Dec-2024 11:08 | 541780 | ||
| WSLM4_TS_DEWT_022018.nc | 29-Dec-2024 11:10 | 4555624 | ||
| WSLM4_TS_DEWT_022021.nc | 29-Dec-2024 11:13 | 4164759 | ||
| WSLM4_TS_DEWT_022022.nc | 29-Dec-2024 11:15 | 4569460 | ||
| WSLM4_TS_DEWT_032016.nc | 29-Dec-2024 11:07 | 1471311 | ||
| WSLM4_TS_DEWT_032017.nc | 29-Dec-2024 11:09 | 1470201 | ||
| WSLM4_TS_DEWT_032018.nc | 29-Dec-2024 11:10 | 1469123 | ||
| WSLM4_TS_DEWT_032021.nc | 29-Dec-2024 11:14 | 1626273 | ||
| WSLM4_TS_DEWT_032022.nc | 29-Dec-2024 11:15 | 1472954 | ||
| WSLM4_TS_DEWT_042015.nc | 29-Dec-2024 11:05 | 1463910 | ||
| WSLM4_TS_DEWT_042016.nc | 29-Dec-2024 11:07 | 1469831 | ||
| WSLM4_TS_DEWT_042017.nc | 29-Dec-2024 11:09 | 1464499 | ||
| WSLM4_TS_DEWT_042018.nc | 29-Dec-2024 11:10 | 1469582 | ||
| WSLM4_TS_DEWT_042021.nc | 29-Dec-2024 11:14 | 1144379 | ||
| WSLM4_TS_DEWT_042022.nc | 29-Dec-2024 11:16 | 1472603 | ||
| WSLM4_TS_DEWT_052015.nc | 29-Dec-2024 11:06 | 1477468 | ||
| WSLM4_TS_DEWT_052016.nc | 29-Dec-2024 11:07 | 1467130 | ||
| WSLM4_TS_DEWT_052017.nc | 29-Dec-2024 11:09 | 1463872 | ||
| WSLM4_TS_DEWT_052018.nc | 29-Dec-2024 11:10 | 1457671 | ||
| WSLM4_TS_DEWT_052021.nc | 29-Dec-2024 11:14 | 1472645 | ||
| WSLM4_TS_DEWT_052022.nc | 29-Dec-2024 11:16 | 1473366 | ||
| WSLM4_TS_DEWT_062015.nc | 29-Dec-2024 11:06 | 1466752 | ||
| WSLM4_TS_DEWT_062016.nc | 29-Dec-2024 11:07 | 1466580 | ||
| WSLM4_TS_DEWT_062017.nc | 29-Dec-2024 11:09 | 1475579 | ||
| WSLM4_TS_DEWT_062018.nc | 29-Dec-2024 11:11 | 1458900 | ||
| WSLM4_TS_DEWT_062019.nc | 29-Dec-2024 11:12 | 1465735 | ||
| WSLM4_TS_DEWT_062021.nc | 29-Dec-2024 11:14 | 1471887 | ||
| WSLM4_TS_DEWT_062022.nc | 29-Dec-2024 11:16 | 1472565 | ||
| WSLM4_TS_DEWT_072015.nc | 29-Dec-2024 11:06 | 1471054 | ||
| WSLM4_TS_DEWT_072016.nc | 29-Dec-2024 11:07 | 1465460 | ||
| WSLM4_TS_DEWT_072017.nc | 29-Dec-2024 11:09 | 1465061 | ||
| WSLM4_TS_DEWT_072018.nc | 29-Dec-2024 11:11 | 1471897 | ||
| WSLM4_TS_DEWT_072019.nc | 29-Dec-2024 11:12 | 1475320 | ||
| WSLM4_TS_DEWT_072021.nc | 29-Dec-2024 11:14 | 1470585 | ||
| WSLM4_TS_DEWT_072022.nc | 29-Dec-2024 11:16 | 418876 | ||
| WSLM4_TS_DEWT_082015.nc | 29-Dec-2024 11:06 | 1157513 | ||
| WSLM4_TS_DEWT_082016.nc | 29-Dec-2024 11:07 | 1468416 | ||
| WSLM4_TS_DEWT_082017.nc | 29-Dec-2024 11:09 | 1465202 | ||
| WSLM4_TS_DEWT_082018.nc | 29-Dec-2024 11:11 | 1473529 | ||
| WSLM4_TS_DEWT_082019.nc | 29-Dec-2024 11:12 | 1155519 | ||
| WSLM4_TS_DEWT_082021.nc | 29-Dec-2024 11:14 | 1473907 | ||
| WSLM4_TS_DEWT_082022.nc | 29-Dec-2024 11:16 | 1161264 | ||
| WSLM4_TS_DEWT_092015.nc | 29-Dec-2024 11:06 | 1474267 | ||
| WSLM4_TS_DEWT_092016.nc | 29-Dec-2024 11:08 | 1144902 | ||
| WSLM4_TS_DEWT_092017.nc | 29-Dec-2024 11:10 | 1474067 | ||
| WSLM4_TS_DEWT_092018.nc | 29-Dec-2024 11:11 | 1460172 | ||
| WSLM4_TS_DEWT_092019.nc | 29-Dec-2024 11:12 | 1458535 | ||
| WSLM4_TS_DEWT_092020.nc | 29-Dec-2024 11:13 | 1476314 | ||
| WSLM4_TS_DEWT_092021.nc | 29-Dec-2024 11:14 | 1464740 | ||
| WSLM4_TS_DEWT_102016.nc | 29-Dec-2024 11:08 | 1464495 | ||
| WSLM4_TS_DEWT_102017.nc | 29-Dec-2024 11:10 | 1468878 | ||
| WSLM4_TS_DEWT_102018.nc | 29-Dec-2024 11:11 | 1626949 | ||
| WSLM4_TS_DEWT_102019.nc | 29-Dec-2024 11:12 | 1625116 | ||
| WSLM4_TS_DEWT_102020.nc | 29-Dec-2024 11:13 | 994511 | ||
| WSLM4_TS_DEWT_102021.nc | 29-Dec-2024 11:15 | 429818 | ||
| WSLM4_TS_DEWT_102022.nc | 29-Dec-2024 11:16 | 1625386 | ||
| WSLM4_TS_DEWT_112016.nc | 29-Dec-2024 11:08 | 1624334 | ||
| WSLM4_TS_DEWT_112018.nc | 29-Dec-2024 11:11 | 1626875 | ||
| WSLM4_TS_DEWT_112019.nc | 29-Dec-2024 11:12 | 1476585 | ||
| WSLM4_TS_DEWT_112020.nc | 29-Dec-2024 11:13 | 1626865 | ||
| WSLM4_TS_DEWT_112021.nc | 29-Dec-2024 11:15 | 1626697 | ||
| WSLM4_TS_DEWT_112022.nc | 29-Dec-2024 11:16 | 1626906 | ||
| WSLM4_TS_DEWT_122015.nc | 29-Dec-2024 11:06 | 1626407 | ||
| WSLM4_TS_DEWT_122016.nc | 29-Dec-2024 11:08 | 1834770 | ||
| WSLM4_TS_DEWT_122017.nc | 29-Dec-2024 11:10 | 1830061 | ||
| WSLM4_TS_DEWT_122018.nc | 29-Dec-2024 11:11 | 1828516 | ||
| WSLM4_TS_DEWT_122019.nc | 29-Dec-2024 11:12 | 1828439 | ||
| WSLM4_TS_DEWT_122020.nc | 29-Dec-2024 11:13 | 1829167 | ||
| WSLM4_TS_DEWT_122021.nc | 29-Dec-2024 11:15 | 1678052 | ||
| WSLM4_TS_DEWT_122022.nc | 29-Dec-2024 11:17 | 1833235 | ||